Location: Adgulyand-Kari
(41.9644°N, 44.7421°E)
Time: 02:07:06
(UTC+00:00)

Daily predictions for brighter satellites

Satellite Brightness Start Highest point End
(mag) Time Altitude Azimuth Time Altitude Azimuth Time Altitude Azimuth
CENTAUR R/B 3.6 00:27:06 57° NE 00:27:06 57° NE 00:35:35 10° SE
ATLAS 2AS CENTAUR R/B 3.8 00:40:22 35° SSE 00:43:03 46° ESE 00:50:29 10° NE
NOSS 3-2 (A) 4.3 00:53:42 61° SSE 00:53:42 61° SSE 01:00:37 10° SSE
Atlas Centaur 2 4.1 01:01:28 24° SSE 01:01:28 24° SSE 01:05:50 10° ESE
USA 238 DEB 4.0 01:10:52 60° S 01:10:52 60° S 01:17:05 10° SSE
USA 238 4.0 01:10:55 61° S 01:10:55 61° S 01:17:10 10° SSE
Lacrosse 5 2.9 01:13:33 42° ENE 01:13:33 42° ENE 01:17:02 10° NE
Cosmos 2263 Rocket 3.3 01:19:41 33° NNE 01:19:41 33° NNE 01:22:46 10° NNE
ATLAS CENTAUR R/B 4.0 01:19:43 12° NE 01:19:43 12° NE 01:21:14 10° ENE
SJ 16-02 3.0 01:31:42 27° NNE 01:31:42 27° NNE 01:33:46 10° NNE
Milstar 3 Cent rocket 4.1 01:31:25 26° SSW 01:34:14 33° SSE 01:44:40 10° ESE
Cosmos 2181 Rocket 4.5 01:29:36 10° N 01:35:43 58° E 01:41:44 10° SSE
Cosmos 1709 Rocket 3.9 01:29:25 10° S 01:35:48 89° W 01:42:14 10° N
FENGYUN 3A 3.6 01:32:29 10° NNE 01:37:56 81° ESE 01:43:19 10° S
CZ-4C R/B 2.5 01:40:32 34° S 01:42:31 58° ESE 01:48:04 10° NE
ATLAS 3B R/B 3.5 01:43:18 23° NNW 01:47:32 49° NE 01:54:28 10° ESE
Cosmos 1603 3.8 01:48:30 54° SW 01:48:30 54° SW 01:53:19 10° S
Meteor 2-3 Rocket 3.7 01:42:10 10° S 01:47:52 82° E 01:53:40 10° NNE
COSMO-SKYMED 1 3.6 01:46:18 10° SE 01:50:24 44° ENE 01:53:35 16° N
Cosmos 1943 3.2 01:54:07 58° WSW 01:54:15 59° WSW 01:59:49 10° S
Lacrosse 4 Rocket 1.3 02:01:49 73° SW 02:01:49 73° SW 02:06:09 10° SSE
Cosmos 2074 Rocket 4.5 01:59:42 10° S 02:05:47 61° E 02:11:54 10° NNE
CZ-4B R/B 3.6 02:02:48 10° NNE 02:07:15 59° E 02:11:33 10° S
FALCON 9 DEB 4.1 02:13:44 34° NNE 02:13:44 34° NNE 02:15:51 10° NE
SAR-Lupe-4 3.6 02:09:22 10° SSE 02:12:55 78° ENE 02:14:00 43° N
Cosmos 990 Rocket 3.9 02:08:01 10° SSW 02:13:15 89° WNW 02:18:33 10° NNE
Cosmos 1689 Rocket 2.9 02:11:04 10° SSE 02:13:49 47° ENE 02:14:18 41° NE
NOSS 3-4 (A) 3.7 02:13:20 39° WNW 02:14:27 42° NW 02:20:27 10° NNE
NOSS 3-4 (C) 3.7 02:13:24 39° WNW 02:14:35 43° NW 02:20:35 10° NNE
Cosmos 1461 4.2 02:15:50 28° SW 02:15:50 28° SW 02:18:47 10° S
Cosmos 923 Rocket 3.9 02:13:13 29° NNW 02:15:55 71° WSW 02:21:12 10° S
ALOS 3.2 02:12:05 10° N 02:14:48 30° NNW 02:14:48 30° NNW
Genesis I 3.1 02:14:53 33° SSW 02:16:31 82° ESE 02:20:23 10° NE
CENTAUR R/B 3.6 02:14:21 31° WNW 02:17:40 42° WSW 02:25:49 10° S
METEOR-M 4.1 02:13:16 10° N 02:18:29 56° WNW 02:23:41 10° SSW
deb Chang Zheng 4 3.5 02:14:57 10° N 02:19:14 62° WNW 02:23:31 10° SSW
Cosmos 2184 Rocket 4.1 02:16:47 10° S 02:23:04 80° E 02:29:28 10° N
BREEZE-M DEB (TANK) 2.4 02:24:52 55° NW 02:25:04 57° NNW 02:28:47 10° ENE
USA 234 4.3 02:20:30 10° ENE 02:26:45 46° SE 02:32:59 10° SSW
BREEZE-M DEB (TANK) 3.1 02:25:37 23° SW 02:27:38 71° SE 02:36:21 10° ENE
Meteor 2-17 Rocket 4.3 02:22:14 10° SSW 02:28:12 63° W 02:34:13 10° N
CZ-4B R/B 3.8 02:26:34 10° SSW 02:26:46 11° SSW 02:26:46 11° SSW
SAR-Lupe-1 3.9 02:26:23 10° S 02:29:56 66° WSW 02:31:31 31° NNW
Cosmos 405 Rocket 3.4 02:27:26 10° S 02:31:02 53° E 02:34:41 10° NNE
Cosmos 158 Rocket 4.1 02:30:47 27° NW 02:33:06 48° WSW 02:37:53 10° S
ATLAS 2AS CENTAUR R/B 3.2 02:27:56 16° WSW 02:34:05 49° NW 02:41:40 10° NNE
Cosmos 1844 Rocket 2.6 02:29:50 10° SSW 02:35:29 84° WNW 02:41:12 10° NNE
Cosmos 2228 Rocket 3.7 02:31:26 10° N 02:35:48 56° E 02:40:06 10° SSE
Cosmos 1515 Rocket 3.5 02:32:37 10° NNW 02:37:04 66° W 02:41:29 10° S
Cosmos 1812 3.3 02:34:19 10° N 02:38:07 57° E 02:41:53 10° SSE
SKYMED 2 3.6 02:34:13 10° S 02:38:26 54° W 02:42:12 13° NNW
PSLV R/B 3.8 02:34:31 10° S 02:38:40 74° WSW 02:42:48 10° NNW
Cosmos 1151 Rocket 3.8 02:40:06 28° W 02:40:15 28° W 02:43:56 10° SSW
SL-4 R/B 3.6 02:39:28 17° NNW 02:40:26 19° N 02:43:10 10° NE
COSMOS 2455 3.7 02:34:43 10° S 02:40:33 54° ESE 02:46:25 10° NE
Cosmos 1782 3.2 02:40:54 22° NW 02:43:02 41° W 02:46:49 10° SSW
Cosmos 1680 Rocket 3.7 02:39:40 15° NNW 02:43:52 52° WSW 02:49:00 10° S
GPS 2-04 Rocket1 4.0 02:42:17 18° WSW 02:44:28 31° S 02:47:51 10° ESE
ERS-2 3.6 02:42:44 10° SSW 02:44:42 20° WSW 02:44:42 20° WSW
SJ-12 4.4 02:43:59 10° N 02:47:43 36° WNW 02:51:25 10° SW
Cosmos 1844 3.6 02:43:24 10° SSW 02:48:56 82° WNW 02:54:33 10° NNE
Atlas Centaur 2 3.8 02:44:23 10° WSW 02:49:33 26° S 02:53:51 10° SE
FALCON 9 DEB 4.2 02:52:21 23° NW 02:52:53 25° NNW 02:55:36 10° NNE
ADEOS 4.5 02:49:32 10° N 02:53:44 25° WNW 02:57:56 10° WSW
Lacrosse 5 2.7 02:52:48 20° WNW 02:55:18 31° NNW 02:59:48 10° NNE
RESURS DK-1 2.9 02:51:58 10° SW 02:55:50 36° WNW 02:59:43 10° N
Cosmos 372 Rocket 4.3 02:51:32 10° S 02:56:34 69° ESE 03:01:39 10° NNE
Meteor 2-6 Rocket 4.1 02:51:24 10° NNW 02:56:47 70° W 03:02:12 10° S
Cosmos 1500 Rocket 3.6 02:54:03 10° SSW 02:58:16 53° W 03:02:31 10° N
ATLAS CENTAUR R/B 1.1 02:55:55 16° NW 02:58:55 80° WSW 03:02:54 10° SSE
Cosmos 2263 Rocket 3.8 03:01:26 14° NW 03:01:57 14° NW 03:04:56 10° NNW
Meteor PRIRODA 4.3 02:58:51 10° N 03:02:13 32° WNW 03:05:34 10° SW
OAO 2 Rocket 4.5 02:58:09 11° WSW 03:02:25 35° S 03:07:04 10° ESE
Cosmos 2112 Rocket 4.5 02:58:33 10° NNW 03:03:33 41° WSW 03:08:31 10° S
Gbstr 26 Del rocket 2.7 03:01:01 19° WNW 03:03:37 70° SW 03:07:39 10° SE
H-2A R/B 2.9 03:02:01 10° N 03:05:49 51° WNW 03:09:33 10° SSW
ATLAS 5 CENTAUR R/B 3.3 03:02:46 10° S 03:06:23 34° ESE 03:10:19 10° NE
Nadezhda 3 Rocket 4.0 03:00:24 10° N 03:06:43 80° W 03:12:56 10° S
Okean O Rocket 2.9 03:03:01 10° NNE 03:07:17 45° E 03:11:33 10° S
Cosmos 1437 Rocket 2.8 03:03:49 10° N 03:07:37 76° E 03:11:22 10° SSE
SJ 16-02 3.1 03:08:47 13° NW 03:08:47 13° NW 03:10:37 10° NNW
SMAP 3.9 03:04:26 10° NNE 03:09:02 55° E 03:13:35 10° S
CZ-2C R/B 3.6 03:06:38 10° SE 03:11:56 51° ENE 03:17:08 10° N
Cosmos 1898 Rocket 4.2 03:07:33 10° SW 03:12:18 33° WNW 03:17:07 10° N
Sich 1 3.1 03:14:50 10° S 03:19:15 87° W 03:23:44 10° N
Envisat 3.0 03:14:57 10° N 03:20:00 68° WNW 03:25:02 10° SSW
Cosmos 1743 Rocket 4.4 03:18:24 10° SW 03:22:18 30° WNW 03:26:14 10° NNW
Cosmos 2082 Rocket 4.2 03:20:11 10° N 03:24:41 23° NE 03:29:12 10° ESE
CZ-4B R/B 3.5 03:21:02 10° NNE 03:26:24 74° ESE 03:31:50 10° S
COSMO-SKYMED 1 4.1 03:24:00 10° SW 03:26:46 17° W 03:29:34 10° NW
H-2A R/B 2.3 03:23:11 10° N 03:26:59 57° WNW 03:30:43 10° SSW
Meteor 2-12 Rocket 4.5 03:21:00 10° S 03:27:08 85° W 03:33:21 10° N
APEX 4.5 03:21:25 10° SSW 03:27:18 72° WNW 03:34:15 10° NNE
Cosmos 1937 Rocket 4.2 03:24:58 10° WSW 03:29:31 31° WNW 03:34:07 10° N
Cosmos 2154 Rocket 4.2 03:24:20 10° SSW 03:30:17 47° WNW 03:36:19 10° N
CZ-4C R/B 3.2 03:27:11 10° W 03:31:29 26° NW 03:36:30 10° NNE
MOS 1 Rocket 4.0 03:30:30 10° SSW 03:34:54 37° W 03:39:36 10° NNW
Cosmos 1833 Rocket 3.7 03:29:58 10° NNW 03:35:23 46° ENE 03:40:45 10° SE
BREEZE-M DEB (TANK) 3.5 03:31:28 10° WNW 03:36:49 36° SW 03:39:11 10° SSE
ATLAS 3B R/B 3.4 03:31:46 10° NW 03:38:07 38° WSW 03:44:41 10° S
Meteor 1-27 Rocket 3.9 03:32:25 10° NNW 03:38:09 66° W 03:43:57 10° S
CZ-4 R/B 4.4 03:37:08 10° NE 03:40:23 21° E 03:43:37 10° SE
